This is the latest recevied weather packets stored in our database for station/object K8JCL-13. If no packets are shown the sender has not sent any weather packets the latest 10 day(s).
| Time | Temp. | Humidity | Pressure | Rain* | Wind** | Luminosity | Snow |
|---|---|---|---|---|---|---|---|
| 1777928866 | 21.11° C | 64% | 1006.9 hPa | 0 mm | - | 106 W/m² | - |
| 1777928563 | 21.11° C | 67% | 1006.9 hPa | 0 mm | - | 111 W/m² | - |
| 1777928259 | 21.11° C | 66% | 1007 hPa | 0 mm | - | 159 W/m² | - |
| 1777927958 | 20.56° C | 64% | 1006.8 hPa | 0 mm | - | 151 W/m² | - |
| 1777927655 | 20.56° C | 67% | 1006.4 hPa | 0 mm | - | 138 W/m² | - |
| 1777927353 | 20° C | 68% | 1007.2 hPa | 0 mm | - | 125 W/m² | - |
| 1777927052 | 20° C | 68% | 1007.4 hPa | 0 mm | - | 104 W/m² | - |
| 1777926744 | 20° C | 66% | 1007.7 hPa | 0 mm | - | 120 W/m² | - |
| 1777926444 | 20° C | 67% | 1007.9 hPa | 0 mm | - | 119 W/m² | - |
| 1777926141 | 20° C | 69% | 1008 hPa | 0 mm | - | 137 W/m² | - |
| 1777925838 | 20° C | 68% | 1008 hPa | 0 mm | - | 131 W/m² | - |
| 1777925536 | 20° C | 69% | 1008.1 hPa | 0 mm | - | 146 W/m² | - |
| 1777925233 | 20.56° C | 67% | 1007.9 hPa | 0 mm | - | 178 W/m² | - |
| 1777924929 | 20° C | 67% | 1007.7 hPa | 0 mm | - | 180 W/m² | - |
| 1777924626 | 20° C | 68% | 1007.7 hPa | 0 mm | - | 165 W/m² | - |
| 1777924321 | 20° C | 67% | 1007.8 hPa | 0 mm | - | 166 W/m² | - |
| 1777924018 | 20° C | 67% | 1007.7 hPa | 0 mm | - | 168 W/m² | - |
| 1777923708 | 20° C | 67% | 1007.5 hPa | 0 mm | - | 188 W/m² | - |
| 1777923405 | 20° C | 68% | 1007.6 hPa | 0 mm | - | 174 W/m² | - |
| 1777923103 | 20° C | 67% | 1008.1 hPa | 0 mm | - | 183 W/m² | - |
| 1777922801 | 19.44° C | 70% | 1008.1 hPa | 0 mm | - | 166 W/m² | - |
| 1777922499 | 20° C | 71% | 1008.3 hPa | 0 mm | - | 124 W/m² | - |
| 1777922197 | 19.44° C | 69% | 1008.6 hPa | 0 mm | - | 120 W/m² | - |
| 1777921893 | 19.44° C | 68% | 1008.9 hPa | 0 mm | - | 65 W/m² | - |
| 1777921589 | 20° C | 66% | 1008.6 hPa | 0 mm | - | 73 W/m² | - |
* Rain latest hour (hover to see other rain measurements)
** Current wind speed in m/s (hover to see current wind gust speed)